Location: Meadowbank Aerodrome
(65.0250°N, 96.0705°W)
Time: 10:33:00
(UTC-05:00)

Cosmos 2221 - Visible Passes

Search period start: 31 July 2014 00:00
Search period end: 10 August 2014 00:00
Orbit: 599 x 622 km, 82.5° (Epoch: 30 July)

Date Brightness Start Highest point End Pass type
(mag) Time Alt. Az. Time Alt. Az. Time Alt. Az.
02 Aug 5.0 01:27:05 10° ESE 01:29:15 14° ENE 01:31:25 10° NE visible
03 Aug 4.7 01:40:38 10° ESE 01:43:39 18° E 01:46:40 10° NE visible
04 Aug 4.3 01:54:32 10° SE 01:58:07 25° E 02:01:42 10° NNE visible
05 Aug 3.9 02:08:40 10° SSE 02:12:37 33° E 02:16:36 10° NNE visible
06 Aug 5.0 00:48:49 10° E 00:50:30 12° ENE 00:52:12 10° NE visible
06 Aug 3.4 02:22:58 10° SSE 02:27:12 45° E 02:31:26 10° NNE visible
07 Aug 4.8 01:02:08 10° ESE 01:04:53 16° ENE 01:07:37 10° NE visible
07 Aug 2.9 02:37:27 10° S 02:41:49 63° E 02:46:13 10° NNE visible
08 Aug 4.4 01:15:55 10° SE 01:19:19 22° E 01:22:42 10° NNE visible
08 Aug 2.6 02:52:04 10° SSW 02:56:30 87° ESE 03:00:57 10° NNE visible
09 Aug 4.0 01:29:58 10° SSE 01:33:48 30° E 01:37:38 10° NNE visible
09 Aug 2.7 03:06:49 10° SSW 03:11:14 69° WNW 03:15:40 10° NNE visible
